{"data":{"norad_id":62367,"intl_designator":"2024-245C","name":"TIANQI-35","alt_names":[],"object_type":"PAYLOAD","status":"ACTIVE","operator":null,"country":"PRC","launch_date":"2024-12-19","launch_site_code":"YSLA","launch_vehicle":null,"mission":null,"orbit_class":"UNKNOWN","rcs_meters":null,"size_class":null,"mass_kg":null,"dimensions":null,"purposes":[],"wikipedia_slug":null,"has_3d_model":false,"image_url":null,"decayed_at":null,"tle_current":{"epoch":"2026-09-22T12:32:40.096320Z","epoch_age_seconds":137242,"freshness":"FRESH","line1":"1 62367U 24245C   26265.52268630 -.00000034  00000+0  64684-4 0  9993","line2":"2 62367  44.9840 248.6291 0008022  99.7662 260.4077 13.99220611 89971","mean_motion":13.99220611,"eccentricity":0.0008022,"inclination_deg":44.984,"raan_deg":248.6291,"arg_perigee_deg":99.7662,"mean_anomaly_deg":260.4077,"bstar":6.4684e-5,"rev_number":8997,"period_min":102.91443598525,"perigee_km":890.65957094361,"apogee_km":902.33099097518,"semimajor_km":7274.6322809594,"source":"CELESTRAK","updated_at":"2026-09-23T09:00:21.389302Z"}}}